COSMOS 2457 (733)

Last updated on July 6, 2021, 3:39 p.m. UTC

1 36112U 09070B   21186.45508498  .00000000  00000-0  00000-0 0  9990
2 36112  64.2627 132.8508 0004247 189.0278  89.2516  2.13101515 89941
UTC
Height (km)
Latitude
Longitude
Inclination
Orbital Period
UTC large
Height (km)
Speed (km/s)
/
Latitude / Longitude
Inclination (degrees)
Orbital Period (minutes)
Azimuth
Elevation
Range (km)
Doppler Factor
iOS Compass Heading
iOS Angle